Date String (YYYY-MM-DD hh:mm:ss) UTC,Instrument flags,Ambient pressure (hPa),Sample flow (lpm),Bypass flow (lpm),Sample temperature (°C),Ambient temperature (°C),ASC tube jacket temperature (°C),LED temperature (°C),Box temperature (°C),Sample RH (%),Span deviation,Mass concentration (μg/m³),Mass concentration (μg/m³),Mass concentration (μg/m³)
DateTimeUTC,F1_M11,P_M11,Q1_M11,Q2_M11,T1_M11,T2_M11,T3_M11,T4_M11,T5_M11,U1_M11,ZSPAN_M11,X0_M11,X2_M11,X1_M11
2022-11-27 02:00:00,,0822.4,5.00,0.00,28.6,27.2,00.0,37.6,30.5,09.7,0000.0,0006.58,0001.57,0000.90
2022-11-27 02:01:00,,0822.4,5.00,0.00,28.6,27.2,00.0,37.6,30.5,09.7,0000.0,0006.16,0001.58,0000.91
2022-11-27 02:02:00,,0822.4,5.01,0.00,28.6,27.2,00.0,37.6,30.5,09.7,0000.0,0006.68,0001.62,0000.92
2022-11-27 02:03:00,,0822.4,5.00,0.00,28.6,27.2,00.0,37.6,30.5,09.6,0000.0,0006.89,0001.65,0000.92
2022-11-27 02:04:00,,0822.4,4.99,0.00,28.6,27.2,00.0,37.6,30.4,09.7,0000.0,0006.88,0001.64,0000.93
2022-11-27 02:05:00,,0822.4,5.00,0.00,28.6,27.2,00.0,37.6,30.4,09.7,0000.0,0006.95,0001.61,0000.94
2022-11-27 02:06:00,,0822.4,4.99,0.00,28.6,27.2,00.0,37.6,30.4,09.7,0000.0,0007.04,0001.61,0000.95
2022-11-27 02:07:00,,0822.5,5.01,0.00,28.6,27.2,00.0,37.6,30.4,09.7,0000.0,0007.83,0001.63,0000.96
2022-11-27 02:08:00,,0822.4,5.01,0.00,28.6,27.1,00.0,37.6,30.4,09.8,0000.0,0007.93,0001.67,0000.95
2022-11-27 02:09:00,,0822.4,5.00,0.00,28.6,27.1,00.0,37.6,30.4,09.9,0000.0,0007.70,0001.64,0000.96
2022-11-27 02:10:00,,0822.4,4.99,0.00,28.6,27.1,00.0,37.6,30.4,09.9,0000.0,0007.54,0001.63,0000.96
2022-11-27 02:11:00,,0822.4,5.00,0.00,28.6,27.1,00.0,37.6,30.4,09.9,0000.0,0007.48,0001.66,0000.95
2022-11-27 02:12:00,,0822.5,5.01,0.00,28.6,27.1,00.0,37.6,30.4,09.9,0000.0,0007.64,0001.65,0000.95
2022-11-27 02:13:00,,0822.4,5.00,0.00,28.6,27.1,00.0,37.5,30.4,09.8,0000.0,0007.48,0001.63,0000.95
2022-11-27 02:14:00,,0822.4,5.00,0.00,28.6,27.1,00.0,37.5,30.4,09.8,0000.0,0007.79,0001.59,0000.94
2022-11-27 02:15:00,,0822.4,5.01,0.00,28.6,27.1,00.0,37.5,30.4,09.8,0000.0,0008.40,0001.63,0000.93
2022-11-27 02:16:00,,0822.4,5.00,0.00,28.5,27.1,00.0,37.5,30.4,09.9,0000.0,0009.29,0001.67,0000.93
2022-11-27 02:17:00,,0822.5,5.00,0.00,28.5,27.1,00.0,37.5,30.4,10.0,0000.0,0009.33,0001.64,0000.91
2022-11-27 02:18:00,,0822.6,5.00,0.00,28.5,27.1,00.0,37.5,30.4,10.1,0000.0,0008.83,0001.63,0000.89
2022-11-27 02:19:00,,0822.6,5.00,0.00,28.5,27.1,00.0,37.5,30.3,10.1,0000.0,0009.16,0001.61,0000.89
2022-11-27 02:20:00,,0822.6,5.00,0.00,28.5,27.1,00.0,37.5,30.3,10.0,0000.0,0009.05,0001.61,0000.87
2022-11-27 02:21:00,,0822.6,5.00,0.00,28.5,27.1,00.0,37.5,30.3,10.1,0000.0,0008.83,0001.62,0000.86
2022-11-27 02:22:00,,0822.6,5.00,0.00,28.5,27.0,00.0,37.5,30.3,10.2,0000.0,0008.91,0001.67,0000.84
2022-11-27 02:23:00,,0822.6,5.00,0.00,28.5,27.0,00.0,37.5,30.3,10.2,0000.0,0009.18,0001.65,0000.82
2022-11-27 02:24:00,,0822.6,5.00,0.00,28.5,27.0,00.0,37.5,30.3,10.3,0000.0,0008.86,0001.63,0000.81
2022-11-27 02:25:00,,0822.6,5.00,0.00,28.5,27.0,00.0,37.5,30.3,10.4,0000.0,0008.62,0001.57,0000.80
2022-11-27 02:26:00,,0822.6,5.00,0.00,28.5,27.0,00.0,37.5,30.3,10.3,0000.0,0007.84,0001.51,0000.79
2022-11-27 02:27:00,,0822.6,5.00,0.00,28.5,27.0,00.0,37.4,30.3,10.4,0000.0,0006.31,0001.39,0000.78
2022-11-27 02:28:00,,0822.7,5.00,0.00,28.4,27.0,00.0,37.4,30.3,10.5,0000.0,0005.97,0001.36,0000.76
2022-11-27 02:29:00,,0822.7,5.00,0.00,28.4,27.0,00.0,37.4,30.2,10.5,0000.0,0005.74,0001.32,0000.76
2022-11-27 02:30:00,,0822.6,5.00,0.00,28.4,27.0,00.0,37.4,30.3,10.6,0000.0,0004.81,0001.28,0000.74
2022-11-27 02:31:00,,0822.6,5.00,0.00,28.4,26.9,00.0,37.4,30.2,10.6,0000.0,0004.59,0001.28,0000.73
2022-11-27 02:32:00,,0822.7,5.00,0.00,28.4,26.9,00.0,37.4,30.2,10.7,0000.0,0004.81,0001.32,0000.73
2022-11-27 02:33:00,,0822.7,5.00,0.00,28.4,26.9,00.0,37.4,30.2,10.8,0000.0,0005.40,0001.33,0000.72
2022-11-27 02:34:00,,0822.7,5.00,0.00,28.4,26.9,00.0,37.4,30.2,10.7,0000.0,0004.05,0001.33,0000.73
2022-11-27 02:35:00,,0822.7,5.00,0.00,28.4,26.9,00.0,37.4,30.2,10.9,0000.0,0004.31,0001.37,0000.72
2022-11-27 02:36:00,,0822.7,5.00,0.00,28.4,26.8,00.0,37.4,30.2,10.9,0000.0,0004.61,0001.40,0000.71
2022-11-27 02:37:00,,0822.7,5.00,0.00,28.3,26.8,00.0,37.4,30.2,10.9,0000.0,0004.84,0001.49,0000.71
2022-11-27 02:38:00,,0822.7,5.02,0.00,28.3,26.8,00.0,37.3,30.1,10.8,0000.0,0005.10,0001.52,0000.71
2022-11-27 02:39:00,,0822.7,5.00,0.00,28.3,26.8,00.0,37.3,30.1,10.8,0000.0,0005.37,0001.55,0000.72
2022-11-27 02:40:00,,0822.7,5.00,0.00,28.3,26.8,00.0,37.3,30.1,10.8,0000.0,0006.65,0001.61,0000.72
2022-11-27 02:41:00,,0822.7,5.00,0.00,28.3,26.8,00.0,37.3,30.1,10.7,0000.0,0007.02,0001.68,0000.74
2022-11-27 02:42:00,,0822.8,4.99,0.00,28.3,26.8,00.0,37.3,30.1,10.7,0000.0,0007.02,0001.67,0000.75
2022-11-27 02:43:00,,0822.8,5.00,0.00,28.3,26.8,00.0,37.3,30.1,10.8,0000.0,0007.14,0001.67,0000.75
2022-11-27 02:44:00,,0822.8,5.00,0.00,28.3,26.8,00.0,37.3,30.0,10.9,0000.0,0006.81,0001.62,0000.76
2022-11-27 02:45:00,,0822.8,5.00,0.00,28.2,26.8,00.0,37.3,30.0,10.9,0000.0,0007.01,0001.60,0000.76
2022-11-27 02:46:00,,0822.8,5.00,0.00,28.2,26.7,00.0,37.3,30.0,10.9,0000.0,0006.88,0001.63,0000.78
2022-11-27 02:47:00,,0822.9,5.01,0.00,28.2,26.7,00.0,37.2,30.0,10.8,0000.0,0007.34,0001.68,0000.80
2022-11-27 02:48:00,,0822.9,5.01,0.00,28.2,26.7,00.0,37.2,30.0,10.9,0000.0,0007.45,0001.66,0000.83
2022-11-27 02:49:00,,0822.9,5.00,0.00,28.2,26.7,00.0,37.2,30.0,10.9,0000.0,0007.43,0001.65,0000.84
2022-11-27 02:50:00,,0822.9,5.00,0.00,28.2,26.7,00.0,37.2,30.0,10.9,0000.0,0008.10,0001.76,0000.86
2022-11-27 02:51:00,,0822.9,5.00,0.00,28.2,26.7,00.0,37.2,30.0,11.0,0000.0,0008.44,0001.77,0000.87
2022-11-27 02:52:00,,0823.0,5.00,0.00,28.2,26.7,00.0,37.2,29.9,11.0,0000.0,0008.06,0001.71,0000.87
2022-11-27 02:53:00,,0823.0,4.99,0.00,28.1,26.6,00.0,37.2,29.9,11.1,0000.0,0007.97,0001.70,0000.89
2022-11-27 02:54:00,,0823.0,5.00,0.00,28.1,26.6,00.0,37.2,29.9,11.0,0000.0,0008.42,0001.73,0000.90
2022-11-27 02:55:00,,0823.0,5.01,0.00,28.1,26.6,00.0,37.2,29.9,10.9,0000.0,0008.21,0001.75,0000.91
2022-11-27 02:56:00,,0822.9,5.00,0.00,28.1,26.5,00.0,37.1,29.9,10.9,0000.0,0008.11,0001.82,0000.92
2022-11-27 02:57:00,,0822.9,5.00,0.00,28.1,26.4,00.0,37.1,29.9,10.9,0000.0,0008.10,0001.83,0000.95
2022-11-27 02:58:00,,0822.9,4.99,0.00,28.1,26.2,00.0,37.1,29.8,10.9,0000.0,0007.76,0001.78,0000.96
2022-11-27 02:59:00,,0822.9,5.00,0.00,28.0,26.1,00.0,37.1,29.8,10.9,0000.0,0007.50,0001.76,0000.94
